Location: Asheville, NC
(35.6000°N, 82.5500°W)
Time: 02:26:14
(UTC-04:00)

Vanguard 1 - Pass Details

Date: 14 March 2018
Orbit: 650 x 3833 km, 34.3° (Epoch: 20 June)

Event Time Altitude Azimuth Distance (km) Brightness Sun altitude
Rises 10:29:24 0° 246° (WSW) 7,215 14.2 31.6°
Reaches altitude 10° 10:33:47 10° 245° (WSW) 6,459 14.0 32.4°
Maximum altitude 10:56:46 78° 163° (SSE) 3,839 13.9 36.3°
Drops below altitude 10° 11:17:10 10° 81° (E) 5,849 14.6 39.5°
Sets 11:20:53 0° 81° (E) 6,543 14.7 40.1°
